Regional Weather Roundup
Issued by NWS

Home | Current Version | Previous Version | Text Only | Print | Product List | Glossary Off
Versions: 1 2 3 4 5 6 7 8 9 10 11 12 13 14 15 16 17 18 19 20 21 22 23 24 25 26 27 28 29 30 31 32 33 34 35 36 37 38 39 40 41 42 43 44 45 46 47 48 49 50

000
ASUS43 KFSD 281202
RWRSD

WEATHER ROUNDUP FOR SOUTH DAKOTA
NATIONAL WEATHER SERVICE SIOUX FALLS SD
700 AM CDT MON JUL 28 2014

NOTE: "FAIR" INDICATES FEW OR NO CLOUDS BELOW 12,000 FEET WITH NO
SIGNIFICANT WEATHER AND/OR OBSTRUCTIONS TO VISIBILITY.


SDZ001>005-009-010-012>017-281300-
NORTHWEST AND NORTH CENTRAL SOUTH DAKOTA

CITY           SKY/WX    TMP DP  RH WIND       PRES   REMARKS
BUFFALO          N/A     51  49  92 E7        30.28S
FAITH            N/A     54  50  86 SE5       30.34F
MOBRIDGE       CLEAR     51  50  96 N6        30.32R
$$

SDZ012>016-024>037-041>051-057-063-072>074-281300-
SOUTHWEST AND SOUTH CENTRAL SOUTH DAKOTA

CITY           SKY/WX    TMP DP  RH WIND       PRES   REMARKS
RAPID CTY ARPT MOCLDY    54  51  90 SE3       30.35S
PIERRE         CLEAR     54  52  93 W3        30.32R
CUSTER         CLEAR     48  45  89 NW5       30.43S
ELLSWORTH AFB  CLEAR     55  51  88 SE5       30.34F
PHILIP         CLEAR     50  47  89 NW3       30.34S
PINE RIDGE     CLEAR     51  49  92 CALM      30.35S
WINNER         FAIR      53  50  89 SW3       30.33R
$$

SDZ004>011-016>023-039-040-281300-
NORTHEAST SOUTH DAKOTA

CITY           SKY/WX    TMP DP  RH WIND       PRES   REMARKS
ABERDEEN       MOCLDY    55  53  93 N6        30.30R
WATERTOWN      CLOUDY    59  56  89 N8        30.27R
SISSETON         N/A     60  58  92 N9        30.26R
$$

SDZ017-020-022-023-036>040-048>070-281300-
SOUTHEAST SOUTH DAKOTA

CITY           SKY/WX    TMP DP  RH WIND       PRES   REMARKS
SIOUX FALLS    CLOUDY    60  57  89 NW7       30.26S
HURON          CLEAR     50  48  93 NW5       30.29S
CHAMBERLAIN    CLEAR     51  50  96 W3        30.32S
MITCHELL       CLEAR     54  52  93 NW7       30.30R
YANKTON        CLEAR     54  52  94 NW9       30.28R
$$

ABBREVIATIONS USED IN REMARKS
   TC - TEMPERATURE IN CELSIUS
  WCI - WIND CHILL INDEX
   HX - HEAT INDEX
  VSB - VISIBILITY



USA.gov is the U.S. government's official web portal to all federal, state and local government web resources and services.